| time (UTC) | temp F | wind direction | speed MPH | gust MPH | rain 1hr in | rain 24hr in | rain mn in | humidity % | barometer mb |
| 20260510200044 | 59 | 229 | 1.0 | 7.0 | 0.00 | 0.22 | 0.20 | 91 | 1008.1 |
| 20260510194534 | 59 | 0 | 0.0 | 1.0 | 0.00 | 0.22 | 0.20 | 91 | 1008.1 |
| 20260510193039 | 60 | 0 | 0.0 | 0.0 | 0.00 | 0.22 | 0.20 | 90 | 1007.9 |
| 20260510191539 | 60 | 0 | 0.0 | 0.0 | 0.00 | 0.22 | 0.20 | 90 | 1007.8 |
| 20260510190051 | 61 | 0 | 0.0 | 0.0 | 0.00 | 0.22 | 0.20 | 88 | 1007.4 |
| 20260510184538 | 61 | 0 | 0.0 | 0.0 | 0.00 | 0.22 | 0.20 | 88 | 1007.2 |
| 20260510183036 | 62 | 0 | 0.0 | 0.0 | 0.00 | 0.22 | 0.20 | 87 | 1007.0 |
| 20260510181541 | 62 | 0 | 0.0 | 0.0 | 0.00 | 0.22 | 0.20 | 87 | 1006.8 |
| 20260510180039 | 62 | 0 | 0.0 | 1.0 | 0.00 | 0.22 | 0.20 | 86 | 1006.8 |
| 20260510174546 | 63 | 0 | 0.0 | 7.0 | 0.00 | 0.22 | 0.20 | 86 | 1006.6 |
| 20260510173038 | 64 | 257 | 2.0 | 9.0 | 0.00 | 0.22 | 0.20 | 84 | 1006.2 |
| 20260510171550 | 65 | 0 | 1.0 | 4.0 | 0.00 | 0.22 | 0.20 | 84 | 1006.4 |
| 20260510170047 | 65 | 248 | 0.0 | 3.0 | 0.00 | 0.22 | 0.20 | 84 | 1006.6 |
| 20260510164538 | 64 | 0 | 0.0 | 0.0 | 0.00 | 0.22 | 0.20 | 88 | 1006.6 |
| 20260510163048 | 62 | 0 | 0.0 | 1.0 | 0.02 | 0.22 | 0.20 | 89 | 1006.8 |
| 20260510161538 | 62 | 0 | 0.0 | 0.0 | 0.04 | 0.22 | 0.20 | 90 | 1007.0 |
| 20260510160041 | 62 | 0 | 0.0 | 2.0 | 0.03 | 0.21 | 0.19 | 90 | 1007.1 |
| 20260510154536 | 62 | 0 | 1.0 | 4.0 | 0.03 | 0.21 | 0.19 | 89 | 1007.1 |
| 20260510153040 | 63 | 273 | 0.0 | 3.0 | 0.02 | 0.19 | 0.18 | 88 | 1007.0 |
| 20260510151538 | 63 | 18 | 1.0 | 5.0 | 0.00 | 0.17 | 0.15 | 88 | 1006.9 |
| 20260510150048 | 64 | 0 | 0.0 | 2.0 | 0.00 | 0.17 | 0.15 | 92 | 1007.1 |
| 20260510144543 | 62 | 0 | 0.0 | 2.0 | 0.03 | 0.17 | 0.15 | 92 | 1007.3 |
| 20260510143037 | 61 | 0 | 0.0 | 0.0 | 0.03 | 0.17 | 0.15 | 91 | 1007.4 |
| 20260510141536 | 61 | 0 | 0.0 | 0.0 | 0.13 | 0.17 | 0.15 | 90 | 1007.4 |
| 20260510140035 | 61 | 0 | 0.0 | 3.0 | 0.13 | 0.17 | 0.15 | 89 | 1007.7 |
| 20260510134542 | 62 | 0 | 0.0 | 0.0 | 0.09 | 0.13 | 0.11 | 87 | 1007.9 |
| 20260510133039 | 63 | 0 | 0.0 | 4.0 | 0.09 | 0.13 | 0.11 | 84 | 1008.0 |
| 20260510131543 | 65 | 0 | 0.0 | 8.0 | 0.00 | 0.03 | 0.02 | 79 | 1007.7 |
| 20260510130038 | 65 | 246 | 0.0 | 4.0 | 0.00 | 0.03 | 0.02 | 81 | 1007.7 |
| 20260510124536 | 64 | 0 | 1.0 | 5.0 | 0.00 | 0.03 | 0.02 | 83 | 1007.9 |
| 20260510123036 | 64 | 238 | 0.0 | 10.0 | 0.00 | 0.03 | 0.02 | 81 | 1007.9 |
| 20260510121539 | 65 | 0 | 1.0 | 8.0 | 0.00 | 0.03 | 0.01 | 79 | 1007.9 |
| 20260510120038 | 65 | 0 | 1.0 | 7.0 | 0.00 | 0.03 | 0.01 | 76 | 1008.1 |
| 20260510114537 | 65 | 0 | 0.0 | 4.0 | 0.00 | 0.03 | 0.01 | 76 | 1008.2 |
| 20260510113041 | 65 | 250 | 1.0 | 6.0 | 0.00 | 0.03 | 0.01 | 76 | 1008.3 |
| 20260510111536 | 66 | 183 | 1.0 | 7.0 | 0.00 | 0.03 | 0.01 | 75 | 1008.5 |
| 20260510110050 | 66 | 152 | 2.0 | 6.0 | 0.00 | 0.03 | 0.01 | 75 | 1008.4 |
| 20260510104533 | 65 | 153 | 1.0 | 8.0 | 0.00 | 0.03 | 0.01 | 76 | 1008.4 |
| 20260510103043 | 64 | 149 | 3.0 | 8.0 | 0.00 | 0.03 | 0.01 | 78 | 1008.6 |
| 20260510101541 | 64 | 0 | 1.0 | 5.0 | 0.00 | 0.03 | 0.01 | 79 | 1008.7 |
| 20260510100047 | 64 | 112 | 1.0 | 6.0 | 0.00 | 0.03 | 0.01 | 78 | 1008.6 |
| 20260510094541 | 64 | 130 | 1.0 | 6.0 | 0.00 | 0.03 | 0.01 | 77 | 1008.5 |
| 20260510093039 | 64 | 0 | 2.0 | 7.0 | 0.00 | 0.03 | 0.01 | 76 | 1008.5 |
| 20260510091540 | 64 | 135 | 1.0 | 6.0 | 0.00 | 0.03 | 0.01 | 76 | 1008.7 |
| 20260510090039 | 63 | 147 | 3.0 | 8.0 | 0.00 | 0.03 | 0.01 | 76 | 1008.7 |
| 20260510084539 | 63 | 134 | 1.0 | 8.0 | 0.00 | 0.03 | 0.01 | 78 | 1008.6 |
| 20260510083036 | 63 | 148 | 2.0 | 8.0 | 0.00 | 0.03 | 0.01 | 77 | 1008.7 |
| 20260510081541 | 62 | 130 | 4.0 | 9.0 | 0.00 | 0.03 | 0.01 | 76 | 1008.7 |
| 20260510080051 | 62 | 142 | 2.0 | 11.0 | 0.00 | 0.03 | 0.01 | 77 | 1008.7 |
| 20260510074540 | 62 | 173 | 3.0 | 9.0 | 0.00 | 0.03 | 0.01 | 77 | 1008.6 |
| 20260510073047 | 61 | 159 | 4.0 | 9.0 | 0.00 | 0.03 | 0.01 | 79 | 1008.6 |
| 20260510071538 | 60 | 157 | 2.0 | 9.0 | 0.00 | 0.03 | 0.01 | 81 | 1008.6 |
| 20260510070043 | 59 | 153 | 3.0 | 8.0 | 0.00 | 0.03 | 0.01 | 82 | 1008.6 |
| 20260510064543 | 59 | 173 | 3.0 | 7.0 | 0.00 | 0.03 | 0.01 | 82 | 1008.6 |
| 20260510063038 | 58 | 163 | 2.0 | 7.0 | 0.00 | 0.03 | 0.01 | 83 | 1008.7 |
| 20260510061540 | 58 | 159 | 3.0 | 7.0 | 0.00 | 0.03 | 0.01 | 84 | 1008.6 |
| 20260510060044 | 57 | 150 | 1.0 | 3.0 | 0.00 | 0.03 | 0.01 | 88 | 1008.6 |
| 20260510054537 | 56 | 0 | 0.0 | 0.0 | 0.00 | 0.03 | 0.01 | 89 | 1008.5 |
| 20260510053037 | 56 | 0 | 0.0 | 0.0 | 0.00 | 0.03 | 0.01 | 90 | 1008.7 |
| 20260510051536 | 56 | 0 | 0.0 | 0.0 | 0.00 | 0.03 | 0.01 | 90 | 1008.7 |
| 20260510050037 | 56 | 0 | 0.0 | 0.0 | 0.00 | 0.03 | 0.01 | 90 | 1008.8 |
| 20260510044540 | 56 | 0 | 0.0 | 2.0 | 0.00 | 0.03 | 0.01 | 90 | 1008.6 |
| 20260510043039 | 56 | 0 | 0.0 | 2.0 | 0.00 | 0.03 | 0.01 | 90 | 1008.7 |
| 20260510041534 | 57 | 0 | 0.0 | 0.0 | 0.00 | 0.03 | 0.01 | 89 | 1008.8 |
| 20260510040038 | 57 | 0 | 0.0 | 0.0 | 0.00 | 0.03 | 0.01 | 89 | 1009.0 |
| 20260510034536 | 57 | 0 | 0.0 | 1.0 | 0.00 | 0.03 | 0.01 | 88 | 1009.1 |
| 20260510033046 | 57 | 0 | 0.0 | 2.0 | 0.00 | 0.03 | 0.01 | 88 | 1009.1 |
| 20260510031545 | 57 | 0 | 0.0 | 0.0 | 0.00 | 0.03 | 0.01 | 89 | 1009.3 |
| 20260510030041 | 57 | 0 | 0.0 | 1.0 | 0.00 | 0.03 | 0.01 | 89 | 1009.3 |
| 20260510024539 | 58 | 0 | 0.0 | 0.0 | 0.00 | 0.03 | 0.01 | 89 | 1009.2 |
| 20260510023036 | 58 | 0 | 0.0 | 0.0 | 0.00 | 0.03 | 0.01 | 89 | 1009.0 |
| 20260510021616 | 58 | 0 | 0.0 | 0.0 | 0.00 | 0.03 | 0.01 | 88 | 1008.9 |
| 20260510020039 | 58 | 0 | 0.0 | 2.0 | 0.00 | 0.03 | 0.01 | 87 | 1008.8 |
| 20260510014551 | 59 | 0 | 0.0 | 2.0 | 0.00 | 0.03 | 0.01 | 87 | 1008.8 |
| 20260510013041 | 59 | 0 | 0.0 | 2.0 | 0.00 | 0.03 | 0.01 | 87 | 1008.9 |
| 20260510011538 | 59 | 0 | 0.0 | 1.0 | 0.00 | 0.03 | 0.01 | 86 | 1009.1 |
| 20260510010049 | 59 | 0 | 0.0 | 0.0 | 0.00 | 0.03 | 0.01 | 86 | 1009.5 |
| 20260510004535 | 59 | 0 | 0.0 | 0.0 | 0.00 | 0.03 | 0.01 | 85 | 1009.8 |
| 20260510003036 | 59 | 0 | 0.0 | 2.0 | 0.00 | 0.03 | 0.01 | 84 | 1010.1 |
| 20260510001540 | 59 | 0 | 0.0 | 0.0 | 0.00 | 0.03 | 0.01 | 85 | 1010.2 |
| 20260510000041 | 60 | 0 | 0.0 | 2.0 | 0.00 | 0.03 | 0.01 | 85 | 1010.8 |
| 20260509234538 | 60 | 0 | 0.0 | 2.0 | 0.00 | 0.03 | 0.01 | 84 | 1011.2 |
| 20260509233036 | 60 | 0 | 0.0 | 3.0 | 0.00 | 0.03 | 0.01 | 82 | 1011.5 |
| 20260509231543 | 61 | 158 | 1.0 | 5.0 | 0.00 | 0.03 | 0.01 | 82 | 1011.7 |
| 20260509230040 | 61 | 184 | 1.0 | 5.0 | 0.00 | 0.02 | 0.00 | 83 | 1011.7 |
| 20260509224540 | 61 | 117 | 2.0 | 4.0 | 0.02 | 0.02 | 0.00 | 85 | 1011.3 |
| 20260509223040 | 62 | 0 | 0.0 | 2.0 | 0.02 | 0.02 | 0.00 | 85 | 1011.0 |
| 20260509221540 | 63 | 0 | 2.0 | 5.0 | 0.02 | 0.02 | 0.00 | 83 | 1010.9 |
| 20260509220039 | 65 | 123 | 0.0 | 5.0 | 0.01 | 0.01 | 0.00 | 78 | 1010.8 |
| 20260509214539 | 66 | 157 | 1.0 | 10.0 | 0.00 | 0.00 | 0.00 | 74 | 1010.8 |
| 20260509213037 | 65 | 153 | 1.0 | 7.0 | 0.00 | 0.00 | 0.00 | 76 | 1010.9 |
| 20260509211539 | 65 | 0 | 0.0 | 0.0 | 0.00 | 0.00 | 0.00 | 75 | 1010.5 |
| 20260509210045 | 66 | 0 | 0.0 | 0.0 | 0.00 | 0.00 | 0.00 | 75 | 1010.4 |
| 20260509204535 | 66 | 0 | 0.0 | 0.0 | 0.00 | 0.00 | 0.00 | 74 | 1010.2 |
| 20260509203036 | 66 | 0 | 0.0 | 0.0 | 0.00 | 0.00 | 0.00 | 73 | 1010.0 |
| 20260509201539 | 67 | 0 | 0.0 | 0.0 | 0.00 | 0.00 | 0.00 | 71 | 1010.0 |